TimeMST,TemperatureF,Dew PointF,Humidity,Sea Level PressureIn,VisibilityMPH,Wind Direction,Wind SpeedMPH,Gust SpeedMPH,PrecipitationIn,Events,Conditions,WindDirDegrees,DateUTC
12:56 AM,19.9,17.1,89,29.94,-9999.0,Calm,Calm,-,N/A,,Unknown,0,2013-03-07 07:56:00
1:56 AM,21.0,16.0,81,29.98,-9999.0,Calm,Calm,-,N/A,,Unknown,0,2013-03-07 08:56:00
2:56 AM,19.9,16.0,85,29.98,-9999.0,West,4.6,-,N/A,,Unknown,280,2013-03-07 09:56:00
3:56 AM,19.0,14.0,81,29.99,-9999.0,Calm,Calm,-,N/A,,Unknown,0,2013-03-07 10:56:00
4:56 AM,15.1,12.0,88,30.03,-9999.0,Calm,Calm,-,N/A,,Unknown,0,2013-03-07 11:56:00
5:56 AM,16.0,12.9,88,30.06,-9999.0,Calm,Calm,-,N/A,,Unknown,0,2013-03-07 12:56:00
6:56 AM,14.0,10.9,88,30.09,-9999.0,Calm,Calm,-,N/A,,Unknown,0,2013-03-07 13:56:00
7:56 AM,15.1,10.0,80,30.11,-9999.0,Calm,Calm,-,N/A,,Unknown,0,2013-03-07 14:56:00
8:56 AM,17.1,10.9,77,30.10,-9999.0,Calm,Calm,-,N/A,,Unknown,0,2013-03-07 15:56:00
9:56 AM,19.9,10.9,68,30.11,-9999.0,Calm,Calm,-,N/A,,Unknown,0,2013-03-07 16:56:00
10:56 AM,19.9,12.0,71,30.11,-9999.0,ESE,3.5,-,N/A,,Unknown,120,2013-03-07 17:56:00
11:56 AM,25.0,12.9,60,30.10,-9999.0,Calm,Calm,-,N/A,,Unknown,0,2013-03-07 18:56:00
12:56 PM,26.1,15.1,63,30.08,-9999.0,East,4.6,-,N/A,,Unknown,90,2013-03-07 19:56:00
1:56 PM,28.9,16.0,58,30.04,-9999.0,Calm,Calm,-,N/A,,Unknown,0,2013-03-07 20:56:00
2:56 PM,28.0,16.0,61,30.04,-9999.0,Calm,Calm,-,N/A,,Unknown,0,2013-03-07 21:56:00
3:56 PM,28.0,12.9,53,30.04,-9999.0,Calm,Calm,-,N/A,,Unknown,0,2013-03-07 22:56:00
4:56 PM,27.0,12.0,53,30.07,-9999.0,Calm,Calm,-,N/A,,Unknown,0,2013-03-07 23:56:00
5:56 PM,24.1,12.0,60,30.09,-9999.0,Calm,Calm,-,N/A,,Unknown,0,2013-03-08 00:56:00
6:56 PM,23.0,14.0,68,30.12,-9999.0,Calm,Calm,-,N/A,,Unknown,0,2013-03-08 01:56:00
7:56 PM,23.0,18.0,81,30.12,-9999.0,Calm,Calm,-,N/A,,Unknown,0,2013-03-08 02:56:00
8:56 PM,21.9,18.0,85,30.10,-9999.0,Calm,Calm,-,N/A,,Unknown,0,2013-03-08 03:56:00
9:56 PM,23.0,19.9,88,30.07,-9999.0,Calm,Calm,-,0.03,,Unknown,0,2013-03-08 04:56:00
10:56 PM,21.0,19.0,92,30.08,-9999.0,Calm,Calm,-,N/A,,Unknown,0,2013-03-08 05:56:00
11:56 PM,19.9,18.0,92,30.03,-9999.0,Calm,Calm,-,N/A,,Unknown,0,2013-03-08 06:56:00